カタログに戻る

SL-8 DEB

運用中LEO
NORAD 18697·DEBRIS·🇷🇺 Russia

打ち上げ Dec 1, 1987 から Plesetsk Cosmodrome

Loading…

次のパス (今後24時間)

TLE

最新Source: Space-Track

元期: Sep 14, 2026, 09:10 UTC

1 18697U 87098C   26257.38206476  .00001133  00000-0  22205-3 0  9993
2 18697  73.9940 127.8634 0005332 349.6100 185.4878 14.63992991 46163

AllMySatでSL-8 DEBをリアルタイム追跡

Download on the App Store